Dewpoint
74 72 71 67 62 60 50 39 40 39 40 48 52 52 51 53 48 47 64 68 71 70 73 75 77 76 75 76 77 75 75 75 75 75 75 75 75 75 75 75 75 74 73 73 73 74 74 75 74
72 68 69 67 59 51 37 40 39 41 49 52 52 54 54 57 63 63 66 70 71 72 74 74 77 77 77 77 76 76 75 75 75 75 75 75 75 75 75 74 74 75 74 74 74 74 74 75 74
68 68 66 63 57 51 42 40 40 44 47 48 48 54 56 61 63 64 68 70 72 73 73 74 77 77 76 77 77 76 76 74 74 75 75 75 74 75 75 75 75 74 75 75 75 74 75 74 73
66 70 64 55 51 51 48 49 46 48 49 52 52 54 57 63 63 66 69 70 71 72 74 76 78 76 76 76 77 76 76 75 75 75 75 74 74 75 74 75 75 75 74 74 75 75 74 74 73
64 62 54 52 49 48 49 48 46 48 50 53 55 55 56 63 65 67 69 70 69 72 73 75 77 77 77 77 76 76 76 75 75 75 75 75 74 75 74 75 74 75 75 74 74 74 74 73 73
59 60 52 51 50 50 48 48 47 47 52 56 55 56 57 64 65 66 68 68 69 71 73 74 76 77 77 76 76 76 75 75 74 74 74 75 74 74 74 74 73 74 74 74 74 72 73 74 72
55 56 53 52 50 48 46 48 48 48 51 54 57 55 58 63 64 67 67 67 70 72 73 73 74 74 75 75 75 75 74 74 75 75 74 74 74 74 74 75 74 73 74 73 73 74 74 74 73
61 59 53 52 50 48 46 50 50 47 50 55 57 55 55 61 64 66 65 67 70 71 72 73 74 74 74 73 75 75 76 75 75 75 75 75 75 74 74 75 75 72 73 74 74 74 74 74 73
62 55 52 52 50 45 45 47 46 53 53 54 54 56 57 59 63 63 66 68 70 70 71 73 73 73 73 73 73 75 74 74 75 75 74 74 72 73 73 75 75 72 74 74 74 73 73 73 72
58 55 53 54 52 49 45 42 46 52 51 50 55 56 57 63 64 65 66 66 68 68 71 72 72 72 73 73 73 74 72 72 72 73 72 73 72 73 74 74 75 73 74 74 73 75 73 73 72
51 52 53 53 52 49 46 46 47 52 51 52 56 56 57 60 65 66 65 66 66 68 70 71 72 72 72 71 72 73 73 73 72 73 73 73 72 73 73 73 73 72 72 72 74 74 73 72 72
39 37 44 47 52 51 49 49 48 47 47 51 57 56 57 57 60 65 66 66 66 68 68 71 72 71 71 71 72 72 73 73 72 73 73 72 72 72 72 73 73 73 72 70 72 73 73 72 72
33 32 32 38 48 51 51 50 48 38 36 54 57 56 57 57 58 60 66 66 66 67 68 69 70 70 70 71 71 71 72 72 72 73 73 73 71 70 71 72 73 73 72 70 71 71 72 71 70
33 32 32 31 32 33 41 43 31 24 45 50 56 56 56 57 58 58 61 66 66 67 68 69 70 70 70 71 70 70 70 71 72 73 72 73 72 69 70 71 72 72 72 72 69 70 70 69 68
32 30 29 28 27 24 20 18 18 24 37 47 52 56 57 57 58 59 59 61 66 66 67 69 70 70 70 71 70 69 70 71 72 73 72 72 72 70 70 71 71 72 72 72 70 69 69 68 67
23 27 23 23 23 20 19 17 19 22 24 42 49 51 56 58 58 59 60 60 61 64 67 69 70 70 70 71 70 69 70 71 71 72 73 72 72 72 71 71 71 71 72 71 71 69 69 70 69
21 18 19 19 21 19 20 18 23 23 21 29 51 50 55 57 59 60 60 60 60 62 67 69 70 70 70 70 71 70 70 71 66 68 70 70 69 71 72 71 71 71 72 71 70 70 69 69 69
17 18 18 18 18 18 18 17 20 20 21 45 50 51 54 55 57 59 61 61 61 62 69 70 70 70 70 69 72 71 71 70 69 67 69 68 65 69 72 71 71 70 70 70 69 69 69 68 68
19 18 17 17 18 20 17 18 19 20 19 22 42 48 54 54 56 57 60 61 61 62 67 70 70 69 69 70 70 70 69 70 69 69 69 69 67 69 72 71 71 70 69 69 69 69 68 69 69
21 21 20 19 17 18 15 16 19 21 20 20 23 27 50 54 55 56 59 61 62 62 63 69 69 69 69 69 69 69 68 70 70 70 70 70 69 70 72 71 71 69 68 67 68 69 68 68 69
20 20 13 14 17 15 18 15 16 17 22 29 30 35 31 35 37 55 57 60 62 62 63 66 68 69 69 69 69 70 69 69 69 68 69 71 71 72 72 71 71 70 69 66 66 69 68 67 68
17 15 17 13 15 12 15 13 17 17 24 28 31 30 33 44 48 50 56 59 61 63 63 65 67 69 69 70 69 69 67 66 67 67 67 72 71 72 72 72 72 72 70 69 68 69 70 68 67
12 14 13 16 13 14 14 14 17 25 24 25 30 33 44 47 48 52 55 56 59 62 64 65 66 69 69 70 69 69 68 67 67 68 67 70 72 72 72 72 72 72 72 71 70 70 70 69 68
16 16 15 19 15 12 13 15 22 41 41 32 40 42 43 47 50 53 55 59 58 60 64 65 66 69 70 70 70 69 69 68 67 67 67 70 71 72 73 72 72 72 72 71 71 70 70 70 69
19 15 14 13 14 15 19 19 37 45 47 47 47 47 48 47 53 56 60 63 63 60 63 66 67 68 70 70 71 70 68 68 68 67 66 68 70 72 73 73 72 71 71 71 71 70 69 70 70
21 16 14 11 14 14 17 16 36 48 51 50 49 48 49 50 53 56 60 62 62 61 66 68 68 68 71 71 70 70 70 69 69 68 67 67 68 70 72 73 73 71 70 70 69 69 69 70 70
24 23 22 16 16 17 20 32 41 47 47 48 47 50 51 53 53 56 60 62 63 63 61 65 68 69 71 72 71 71 70 70 70 69 68 68 68 71 72 72 71 70 69 67 67 68 69 70 70
25 26 27 27 23 23 26 31 30 42 46 48 48 51 54 55 56 57 58 59 62 63 64 63 66 66 70 73 72 71 71 71 70 72 72 70 71 71 72 71 70 69 68 68 68 68 70 70 70
23 23 30 29 29 25 26 29 38 46 48 48 51 54 56 57 57 59 60 61 63 63 61 61 65 64 67 73 73 71 71 72 71 69 73 72 71 72 71 71 70 70 70 70 70 71 71 70 70
25 28 32 28 27 30 30 30 46 49 50 52 53 54 61 59 63 62 63 63 61 61 62 64 64 64 67 73 74 73 72 74 72 71 71 72 72 72 71 70 70 70 70 71 71 71 71 70 69
Lifted_Index
-5 -4 -4 -4 -4 -3 -1 0 1 1 0 -0 -1 -2 -1 -1 -0 -1 -2 -3 -3 -4 -5 -7 -8 -8 -8 -8 -8 -7 -6 -6 -7 -6 -6 -6 -5 -5 -4 -4 -4 -3 -3 -3 -3 -3 -3 -3 -3
-4 -4 -4 -4 -4 -3 -1 0 0 0 -0 -1 -1 -2 -2 -2 -2 -2 -2 -3 -4 -4 -5 -7 -8 -8 -8 -8 -8 -7 -7 -7 -7 -6 -6 -5 -5 -4 -4 -4 -4 -4 -3 -3 -3 -3 -3 -3 -3
-4 -4 -4 -4 -3 -2 -1 -0 -0 -1 -1 -1 -2 -2 -2 -2 -2 -2 -3 -3 -4 -5 -5 -7 -8 -8 -8 -8 -8 -8 -7 -7 -7 -7 -6 -5 -4 -4 -4 -4 -4 -4 -4 -4 -4 -4 -3 -3 -3
-4 -3 -3 -2 -2 -2 -1 -1 -1 -2 -2 -2 -2 -2 -2 -2 -2 -3 -3 -3 -4 -4 -5 -7 -7 -8 -8 -8 -8 -8 -7 -7 -7 -7 -6 -5 -4 -4 -4 -4 -4 -4 -4 -4 -4 -4 -3 -3 -3
-3 -2 -1 -1 -1 -1 -1 -1 -1 -2 -2 -2 -2 -2 -2 -3 -3 -3 -3 -3 -3 -4 -5 -6 -7 -7 -7 -8 -8 -8 -7 -7 -7 -6 -6 -5 -5 -5 -4 -4 -4 -4 -4 -4 -3 -3 -3 -3 -2
-1 -1 -0 -1 -1 -1 -0 -0 -1 -2 -3 -3 -3 -3 -3 -3 -3 -3 -3 -3 -4 -5 -5 -6 -7 -7 -7 -7 -7 -7 -7 -7 -6 -6 -5 -5 -5 -5 -4 -4 -4 -3 -3 -3 -3 -3 -3 -3 -2
-1 -1 -0 -1 -1 -0 -0 -0 -1 -1 -2 -3 -3 -3 -3 -3 -3 -3 -3 -3 -4 -5 -6 -6 -6 -6 -6 -6 -7 -7 -6 -6 -6 -6 -5 -5 -5 -5 -5 -4 -4 -3 -3 -3 -3 -3 -3 -3 -3
-2 -1 -1 -1 -1 -0 -0 -0 -1 -1 -2 -3 -3 -3 -3 -4 -4 -3 -3 -3 -4 -4 -5 -6 -6 -6 -6 -6 -6 -6 -6 -6 -6 -6 -6 -5 -5 -5 -5 -5 -4 -3 -3 -3 -3 -3 -3 -3 -2
-3 -2 -1 -1 -1 -0 -0 -1 -1 -1 -2 -3 -3 -4 -4 -4 -4 -3 -3 -4 -4 -4 -5 -5 -6 -6 -6 -6 -6 -6 -6 -6 -6 -6 -5 -5 -5 -5 -5 -5 -4 -4 -4 -4 -3 -3 -3 -3 -2
-2 -2 -1 -0 -0 -0 -1 -1 -2 -2 -2 -3 -4 -4 -4 -4 -4 -4 -4 -4 -3 -3 -4 -5 -5 -5 -5 -5 -6 -5 -5 -5 -5 -5 -5 -5 -5 -5 -5 -5 -5 -4 -4 -4 -4 -3 -3 -3 -3
-0 -0 0 1 1 0 -0 -1 -2 -2 -2 -3 -3 -4 -4 -4 -4 -4 -4 -4 -3 -3 -4 -4 -5 -5 -5 -5 -5 -5 -5 -5 -5 -5 -5 -5 -5 -5 -5 -5 -5 -4 -4 -4 -4 -4 -3 -3 -3
2 2 3 2 2 1 0 -1 -1 -1 -1 -2 -3 -4 -4 -4 -4 -4 -4 -4 -4 -4 -4 -4 -4 -4 -4 -4 -4 -5 -5 -5 -5 -5 -5 -5 -4 -4 -4 -4 -5 -4 -4 -3 -4 -4 -3 -3 -3
4 4 5 4 3 2 1 0 -0 -0 -1 -2 -3 -4 -4 -4 -4 -4 -4 -5 -5 -5 -4 -4 -4 -4 -4 -4 -4 -4 -4 -4 -4 -4 -4 -4 -4 -4 -4 -4 -4 -4 -4 -3 -3 -3 -3 -2 -2
5 5 5 5 4 3 3 2 1 1 -0 -2 -3 -4 -4 -3 -3 -4 -4 -5 -5 -5 -5 -4 -4 -4 -4 -4 -4 -3 -4 -4 -4 -4 -4 -4 -4 -3 -3 -3 -3 -3 -3 -3 -2 -2 -2 -2 -1
6 6 5 5 5 5 4 3 2 1 0 -1 -3 -4 -4 -3 -3 -4 -4 -4 -5 -5 -5 -5 -5 -5 -4 -4 -4 -3 -3 -4 -4 -4 -4 -4 -4 -3 -3 -3 -3 -3 -3 -3 -2 -2 -1 -1 -1
6 5 5 5 5 5 5 3 2 1 1 -0 -2 -3 -4 -4 -4 -4 -4 -4 -4 -4 -5 -5 -6 -5 -5 -5 -5 -4 -4 -4 -4 -4 -4 -4 -4 -4 -4 -3 -3 -3 -3 -2 -2 -2 -2 -1 -2
5 5 4 4 4 5 5 4 3 2 1 0 -1 -3 -4 -4 -4 -4 -4 -4 -4 -4 -5 -5 -6 -6 -5 -5 -5 -4 -4 -4 -4 -4 -4 -4 -4 -4 -4 -4 -3 -3 -2 -2 -2 -2 -2 -1 -2
5 5 5 5 5 5 5 4 4 3 2 0 -1 -3 -4 -4 -4 -5 -5 -5 -5 -5 -5 -6 -6 -5 -5 -5 -5 -5 -4 -4 -4 -4 -3 -3 -3 -4 -4 -4 -4 -3 -2 -2 -2 -1 -1 -1 -1
5 5 6 6 5 5 5 4 4 3 2 1 -1 -2 -4 -4 -5 -5 -5 -5 -5 -5 -5 -6 -6 -6 -5 -5 -5 -5 -5 -4 -4 -4 -3 -3 -3 -3 -4 -4 -4 -3 -2 -2 -2 -1 -1 -1 -1
6 6 6 5 5 5 4 4 3 3 2 1 1 -0 -2 -3 -4 -5 -5 -6 -6 -5 -5 -6 -6 -6 -6 -5 -5 -5 -5 -4 -4 -4 -4 -3 -3 -3 -4 -4 -3 -3 -2 -2 -1 -1 -1 -1 -1
5 5 5 5 4 4 4 3 3 3 2 2 2 1 1 -1 -3 -4 -5 -6 -6 -6 -5 -5 -6 -6 -6 -6 -5 -5 -5 -4 -4 -3 -4 -4 -4 -4 -4 -4 -3 -3 -3 -2 -2 -1 -1 -1 -1
5 4 4 4 4 3 3 2 2 2 2 2 2 2 2 1 -1 -3 -5 -6 -6 -6 -5 -5 -6 -6 -6 -6 -5 -5 -5 -4 -4 -3 -3 -4 -4 -4 -4 -4 -3 -3 -3 -3 -2 -2 -2 -2 -2
5 4 4 4 3 3 2 2 1 1 1 1 1 1 1 1 -0 -3 -5 -5 -5 -5 -5 -5 -5 -6 -6 -6 -5 -5 -5 -4 -4 -4 -4 -4 -4 -4 -4 -4 -4 -3 -3 -3 -3 -2 -2 -2 -2
5 4 4 3 2 2 1 1 0 -0 -0 0 0 1 1 1 0 -2 -4 -5 -5 -5 -5 -5 -5 -6 -6 -6 -6 -6 -5 -5 -5 -4 -4 -4 -5 -5 -4 -4 -4 -4 -4 -3 -3 -3 -2 -2 -3
4 4 3 2 1 1 1 1 -0 -1 -1 -1 -0 0 0 0 0 -1 -3 -4 -5 -5 -5 -6 -6 -6 -7 -7 -6 -6 -6 -6 -5 -5 -5 -4 -5 -5 -5 -5 -5 -4 -4 -3 -3 -2 -2 -2 -3
3 3 2 1 1 2 2 1 -0 -1 -1 -1 -1 -0 -0 -1 -1 -1 -2 -3 -5 -5 -6 -7 -7 -7 -7 -7 -7 -6 -6 -6 -6 -6 -5 -5 -5 -5 -6 -5 -5 -5 -4 -3 -3 -2 -2 -2 -3
3 2 2 2 1 1 1 1 -0 -1 -1 -1 -1 -1 -1 -2 -2 -2 -2 -2 -4 -5 -6 -7 -8 -8 -8 -8 -7 -7 -7 -6 -6 -6 -6 -6 -6 -6 -6 -6 -5 -5 -5 -4 -3 -2 -2 -3 -3
3 2 2 2 1 1 1 1 0 -0 -1 -1 -1 -2 -3 -3 -4 -3 -1 -1 -2 -4 -5 -6 -7 -7 -7 -8 -8 -8 -7 -7 -7 -7 -7 -7 -7 -6 -6 -6 -6 -5 -5 -4 -3 -2 -2 -3 -4
3 3 2 2 1 1 1 1 0 -1 -1 -1 -1 -3 -4 -4 -4 -3 -2 -1 -1 -2 -3 -4 -5 -5 -6 -8 -8 -8 -8 -8 -8 -7 -7 -8 -8 -7 -7 -6 -6 -5 -5 -4 -4 -3 -4 -4 -4
4 3 3 2 2 2 1 1 -0 -1 -1 -1 -1 -2 -4 -5 -4 -3 -2 -1 -1 -1 -2 -2 -3 -3 -5 -7 -9 -8 -8 -8 -8 -8 -7 -8 -8 -8 -7 -7 -6 -5 -4 -4 -4 -5 -5 -5 -5